Location: Unspecified
(43.4680°N, 87.1740°E)
Time: 20:52:32
(UTC+00:00)

Resurs 1-4 Rocket - Pass Details

Date: 17 April 2021
Orbit: 799 x 815 km, 98.6° (Epoch: 11 May)

Event Time Altitude Azimuth Distance (km) Brightness Sun altitude
Rises 21:05:15 0° 1° (N) 3,325 5.9 -22.8°
Reaches altitude 10° 21:08:04 10° 346° (NNW) 2,388 4.9 -22.4°
Maximum altitude 21:11:59 22° 298° (WNW) 1,708 3.6 -21.9°
Enters shadow 21:12:21 22° 292° (WNW) 1,714 3.5 -21.8°
